Regional Weather Roundup
Issued by NWS

Home | Current Version | Previous Version | Graphics & Text | Print | Product List | Glossary On
Versions: 1 2 3 4 5 6 7 8 9 10 11 12 13 14 15 16 17 18 19 20 21 22 23 24 25 26 27 28 29 30 31 32 33 34 35 36 37 38 39 40 41 42 43 44 45 46 47 48 49 50
000
ASUS43 KBIS 141102
RWRND

NORTH DAKOTA REGIONAL WEATHER ROUNDUP
NATIONAL WEATHER SERVICE BISMARCK ND
500 AM CST SUN FEB 14 2016

NOTE: "FAIR" INDICATES FEW OR NO CLOUDS BELOW 12,000 FEET WITH NO
SIGNIFICANT WEATHER AND/OR OBSTRUCTIONS TO VISIBILITY.


NDZ001>003-009>011-017-141200-
NORTHWEST NORTH DAKOTA

CITY           SKY/WX    TMP DP  RH WIND       PRES   REMARKS
WILLISTON      CLOUDY    33  29  85 W9        29.76F
MINOT          LGT SNOW  24  18  77 NW9       29.72F WCI  14
MINOT AFB      LGT SNOW  20  20  99 CALM      29.72S FOG
$$

NDZ018>021-031>035-040>046-141200-
SOUTHWEST NORTH DAKOTA

CITY           SKY/WX    TMP DP  RH WIND       PRES   REMARKS
BISMARCK       CLOUDY    23  20  88 CALM      29.77F FOG
DICKINSON      MOCLDY    31  28  89 W16       29.73F WCI  20
GARRISON         N/A     26  23  88 NW18      29.73S WCI  13
HETTINGER ARPT CLEAR     30  27  88 W10       29.78F
$$

NDZ004>008-012>016-024-026-027-054-141200-
NORTHEAST NORTH DAKOTA

CITY           SKY/WX    TMP DP  RH WIND       PRES   REMARKS
GRAND FORKS    MIX PCPN  14   8  77 S20       29.91F WCI  -3
GRND FRKS AFB  CLOUDY    12   7  79 S21       29.88F WCI  -6
DEVILS LAKE    FLURRIES  14  10  84 S16       29.77F WCI  -2
$$

NDZ022-023-025-028>030-036>039-047>053-141200-
SOUTHEAST NORTH DAKOTA

CITY           SKY/WX    TMP DP  RH WIND       PRES   REMARKS
FARGO          LGT SNOW  14   8  77 S21G32    29.94F WCI  -4
JAMESTOWN      LGT SNOW  13  10  88 S18       29.80S FOG     WCI  -4
$$




USA.gov is the U.S. government's official web portal to all federal, state and local government web resources and services.